User: anonymous   Login
Location: Limerick
(52.6800°N, 8.6400°W)
Time: 08:26:53
(UTC+00:00)
Language:

Sapphire - Orbit

View from above orbital plane
View from above orbital plane
View from above satellite
View from above satellite

Ground track
Ground track

The orbit data is extracted from the following two-line orbital elements,

1 26932U 01043D   16339.11464985 -.00000028  00000-0  21162-4 0  9997
2 26932  67.0564 236.5619 0003965 279.0799  80.9854 14.30233335792470
Epoch (UTC): 04 December 2016 02:45:05
Eccentricity: 0.0003965
inclination: 67.0564°
perigee height: 788 km
apogee height: 794 km
right ascension of ascending node: 236.5619°
argument of perigee: 279.0799°
revolutions per day: 14.30233335
mean anomaly at epoch: 80.9854°
orbit number at epoch: 79247

The dashed part of the orbit path shows where the satellite is in the earth's shadow,  

DLR